Year,Month,Day,Hour,Minute,Value (Times are PST for temperature in C)
2014,05,01,00,00,13.30
2014,05,01,00,01,13.30
2014,05,01,00,02,13.30
2014,05,01,00,03,13.30
2014,05,01,00,04,13.30
2014,05,01,00,05,13.30
2014,05,01,00,06,13.30
2014,05,01,00,07,13.30
2014,05,01,00,08,13.30
2014,05,01,00,09,13.30
2014,05,01,00,10,13.30
2014,05,01,00,11,13.30
2014,05,01,00,12,13.30
2014,05,01,00,13,13.20
2014,05,01,00,14,13.20
2014,05,01,00,15,13.20
2014,05,01,00,16,13.20
2014,05,01,00,17,13.20
2014,05,01,00,18,13.20
2014,05,01,00,19,13.20
2014,05,01,00,20,13.20
2014,05,01,00,21,13.20
2014,05,01,00,22,13.10
2014,05,01,00,23,13.10
2014,05,01,00,24,13.10
2014,05,01,00,25,13.10
2014,05,01,00,26,13.10
2014,05,01,00,27,13.00
2014,05,01,00,28,13.00
2014,05,01,00,29,13.00
2014,05,01,00,30,13.00
2014,05,01,00,31,13.00
2014,05,01,00,32,12.90
2014,05,01,00,33,12.90
2014,05,01,00,34,12.80
2014,05,01,00,35,12.80
2014,05,01,00,36,12.80
2014,05,01,00,37,12.80
2014,05,01,00,38,12.80
2014,05,01,00,39,12.70
2014,05,01,00,40,12.70
2014,05,01,00,41,12.70
2014,05,01,00,42,12.70
2014,05,01,00,43,12.70
2014,05,01,00,44,12.70
2014,05,01,00,45,12.70
2014,05,01,00,46,12.60
2014,05,01,00,47,12.60
2014,05,01,00,48,12.60
2014,05,01,00,49,12.60
2014,05,01,00,50,12.60
2014,05,01,00,51,12.60
2014,05,01,00,52,12.50
2014,05,01,00,53,12.50
2014,05,01,00,54,12.50
2014,05,01,00,55,12.50
2014,05,01,00,56,12.50
2014,05,01,00,57,12.40
2014,05,01,00,58,12.40
2014,05,01,00,59,12.40
2014,05,01,01,00,12.40
2014,05,01,01,01,12.50
2014,05,01,01,02,12.50
2014,05,01,01,03,12.60
2014,05,01,01,04,12.60
2014,05,01,01,05,12.60
2014,05,01,01,06,12.70
2014,05,01,01,07,12.70
2014,05,01,01,08,12.80
2014,05,01,01,09,12.80
2014,05,01,01,10,12.80
2014,05,01,01,11,12.90
2014,05,01,01,12,12.90
2014,05,01,01,13,13.00
2014,05,01,01,14,13.00
2014,05,01,01,15,13.10
2014,05,01,01,16,13.10
2014,05,01,01,17,13.20
2014,05,01,01,18,13.20
2014,05,01,01,19,13.20
2014,05,01,01,20,13.30
2014,05,01,01,21,13.30
2014,05,01,01,22,13.30
2014,05,01,01,23,13.20
2014,05,01,01,24,13.00
2014,05,01,01,25,13.00
2014,05,01,01,26,12.90
2014,05,01,01,27,12.80
2014,05,01,01,28,12.70
2014,05,01,01,29,12.60
2014,05,01,01,30,12.60
2014,05,01,01,31,12.50
2014,05,01,01,32,12.50
2014,05,01,01,33,12.50
2014,05,01,01,34,12.40
2014,05,01,01,35,12.30
2014,05,01,01,36,12.30
2014,05,01,01,37,12.30
2014,05,01,01,38,12.30
2014,05,01,01,39,12.30
2014,05,01,01,40,12.20
2014,05,01,01,41,12.20
2014,05,01,01,42,12.10
2014,05,01,01,43,12.10
2014,05,01,01,44,12.10
2014,05,01,01,45,12.00
2014,05,01,01,46,12.00
2014,05,01,01,47,12.00
2014,05,01,01,48,12.00
2014,05,01,01,49,11.90
2014,05,01,01,50,11.90
2014,05,01,01,51,11.90
2014,05,01,01,52,11.90
2014,05,01,01,53,11.90
2014,05,01,01,54,11.80
2014,05,01,01,55,11.80
2014,05,01,01,56,11.80
2014,05,01,01,57,11.80
2014,05,01,01,58,11.80
2014,05,01,01,59,11.80
2014,05,01,02,00,11.80
2014,05,01,02,01,11.80
2014,05,01,02,02,11.80
2014,05,01,02,03,11.80
2014,05,01,02,04,11.80
2014,05,01,02,05,11.80
2014,05,01,02,06,11.80
2014,05,01,02,07,11.80
2014,05,01,02,08,11.80
2014,05,01,02,09,11.70
2014,05,01,02,10,11.70
2014,05,01,02,11,11.70
2014,05,01,02,12,11.70
2014,05,01,02,13,11.70
2014,05,01,02,14,11.70
2014,05,01,02,15,11.70
2014,05,01,02,16,11.70
2014,05,01,02,17,11.70
2014,05,01,02,18,11.60
2014,05,01,02,19,11.60
2014,05,01,02,20,11.60
2014,05,01,02,21,11.60
2014,05,01,02,22,11.60
2014,05,01,02,23,11.60
2014,05,01,02,24,11.60
2014,05,01,02,25,11.50
2014,05,01,02,26,11.40
2014,05,01,02,27,11.40
2014,05,01,02,28,11.40
2014,05,01,02,29,11.40
2014,05,01,02,30,11.40
2014,05,01,02,31,11.40
2014,05,01,02,32,11.40
2014,05,01,02,33,11.40
2014,05,01,02,34,11.40
2014,05,01,02,35,11.40
2014,05,01,02,36,11.40
2014,05,01,02,37,11.40
2014,05,01,02,38,11.40
2014,05,01,02,39,11.40
2014,05,01,02,40,11.40
2014,05,01,02,41,11.40
2014,05,01,02,42,11.40
2014,05,01,02,43,11.40
2014,05,01,02,44,11.40
2014,05,01,02,45,11.40
2014,05,01,02,46,11.40
2014,05,01,02,47,11.40
2014,05,01,02,48,11.40
2014,05,01,02,49,11.40
2014,05,01,02,50,11.40
2014,05,01,02,51,11.40
2014,05,01,02,52,11.40
2014,05,01,02,53,11.40
2014,05,01,02,54,11.40
2014,05,01,02,55,11.40
2014,05,01,02,56,11.40
2014,05,01,02,57,11.40
2014,05,01,02,58,11.40
2014,05,01,02,59,11.40
2014,05,01,03,00,11.40
2014,05,01,03,01,11.40
2014,05,01,03,02,11.40
2014,05,01,03,03,11.40
2014,05,01,03,04,11.40
2014,05,01,03,05,11.40
2014,05,01,03,06,11.40
2014,05,01,03,07,11.40
2014,05,01,03,08,11.40
2014,05,01,03,09,11.40
2014,05,01,03,10,11.40
2014,05,01,03,11,11.40
2014,05,01,03,12,11.40
2014,05,01,03,13,11.40
2014,05,01,03,14,11.40
2014,05,01,03,15,11.40
2014,05,01,03,16,11.40
2014,05,01,03,17,11.40
2014,05,01,03,18,11.40
2014,05,01,03,19,11.40
2014,05,01,03,20,11.40
2014,05,01,03,21,11.40
2014,05,01,03,22,11.40
2014,05,01,03,23,11.30
2014,05,01,03,24,11.30
2014,05,01,03,25,11.30
2014,05,01,03,26,11.30
2014,05,01,03,27,11.30
2014,05,01,03,28,11.30
2014,05,01,03,29,11.30
2014,05,01,03,30,11.30
2014,05,01,03,31,11.40
2014,05,01,03,32,11.40
2014,05,01,03,33,11.40
2014,05,01,03,34,11.40
2014,05,01,03,35,11.40
2014,05,01,03,36,11.50
2014,05,01,03,37,11.60
2014,05,01,03,38,11.60
2014,05,01,03,39,11.60
2014,05,01,03,40,11.60
2014,05,01,03,41,11.60
2014,05,01,03,42,11.60
2014,05,01,03,43,11.60
2014,05,01,03,44,11.60
2014,05,01,03,45,11.60
2014,05,01,03,46,11.60
2014,05,01,03,47,11.60
2014,05,01,03,48,11.60
2014,05,01,03,49,11.60
2014,05,01,03,50,11.70
2014,05,01,03,51,11.70
2014,05,01,03,52,11.70
2014,05,01,03,53,11.80
2014,05,01,03,54,11.80
2014,05,01,03,55,11.80
2014,05,01,03,56,11.80
2014,05,01,03,57,11.80
2014,05,01,03,58,11.80
2014,05,01,03,59,11.80
2014,05,01,04,00,11.80
2014,05,01,04,01,11.80
2014,05,01,04,02,11.80
2014,05,01,04,03,11.80
2014,05,01,04,04,11.80
2014,05,01,04,05,11.80
2014,05,01,04,06,11.70
2014,05,01,04,07,11.70
2014,05,01,04,08,11.70
2014,05,01,04,09,11.70
2014,05,01,04,10,11.60
2014,05,01,04,11,11.60
2014,05,01,04,12,11.60
2014,05,01,04,13,11.70
2014,05,01,04,14,11.80
2014,05,01,04,15,12.00
2014,05,01,04,16,12.20
2014,05,01,04,17,12.50
2014,05,01,04,18,12.70
2014,05,01,04,19,12.80
2014,05,01,04,20,13.00
2014,05,01,04,21,13.10
2014,05,01,04,22,13.20
2014,05,01,04,23,13.30
2014,05,01,04,24,13.30
2014,05,01,04,25,13.40
2014,05,01,04,26,13.50
2014,05,01,04,27,13.60
2014,05,01,04,28,13.70
2014,05,01,04,29,13.70
2014,05,01,04,30,13.80
2014,05,01,04,31,13.80
2014,05,01,04,32,13.80
2014,05,01,04,33,13.80
2014,05,01,04,34,13.80
2014,05,01,04,35,13.80
2014,05,01,04,36,13.80
2014,05,01,04,37,13.80
2014,05,01,04,38,13.70
2014,05,01,04,39,13.70
2014,05,01,04,40,13.70
2014,05,01,04,41,13.60
2014,05,01,04,42,13.60
2014,05,01,04,43,13.60
2014,05,01,04,44,13.60
2014,05,01,04,45,13.60
2014,05,01,04,46,13.70
2014,05,01,04,47,13.70
2014,05,01,04,48,13.70
2014,05,01,04,49,13.80
2014,05,01,04,50,13.80
2014,05,01,04,51,13.90
2014,05,01,04,52,13.90
2014,05,01,04,53,13.90
2014,05,01,04,54,13.90
2014,05,01,04,55,13.90
2014,05,01,04,56,13.90
2014,05,01,04,57,14.00
2014,05,01,04,58,13.90
2014,05,01,04,59,13.90
2014,05,01,05,00,13.90
2014,05,01,05,01,13.90
2014,05,01,05,02,13.90
2014,05,01,05,03,13.80
2014,05,01,05,04,13.80
2014,05,01,05,05,13.80
2014,05,01,05,06,13.70
2014,05,01,05,07,13.70
2014,05,01,05,08,13.70
2014,05,01,05,09,13.70
2014,05,01,05,10,13.60
2014,05,01,05,11,13.50
2014,05,01,05,12,13.30
2014,05,01,05,13,13.20
2014,05,01,05,14,13.10
2014,05,01,05,15,12.90
2014,05,01,05,16,12.80
2014,05,01,05,17,12.60
2014,05,01,05,18,12.50
2014,05,01,05,19,12.50
2014,05,01,05,20,12.40
2014,05,01,05,21,12.30
2014,05,01,05,22,12.30
2014,05,01,05,23,12.30
2014,05,01,05,24,12.30
2014,05,01,05,25,12.30
2014,05,01,05,26,12.20
2014,05,01,05,27,12.20
2014,05,01,05,28,12.20
2014,05,01,05,29,12.30
2014,05,01,05,30,12.30
2014,05,01,05,31,12.30
2014,05,01,05,32,12.30
2014,05,01,05,33,12.30
2014,05,01,05,34,12.30
2014,05,01,05,35,12.30
2014,05,01,05,36,12.30
2014,05,01,05,37,12.40
2014,05,01,05,38,12.40
2014,05,01,05,39,12.40
2014,05,01,05,40,12.40
2014,05,01,05,41,12.30
2014,05,01,05,42,12.30
2014,05,01,05,43,12.30
2014,05,01,05,44,12.30
2014,05,01,05,45,12.30
2014,05,01,05,46,12.40
2014,05,01,05,47,12.40
2014,05,01,05,48,12.40
2014,05,01,05,49,12.40
2014,05,01,05,50,12.50
2014,05,01,05,51,12.50
2014,05,01,05,52,12.50
2014,05,01,05,53,12.50
2014,05,01,05,54,12.60
2014,05,01,05,55,12.60
2014,05,01,05,56,12.70
2014,05,01,05,57,12.70
2014,05,01,05,58,12.70
2014,05,01,05,59,12.70
2014,05,01,06,00,12.70
2014,05,01,06,01,12.80
2014,05,01,06,02,12.80
2014,05,01,06,03,12.80
2014,05,01,06,04,12.80
2014,05,01,06,05,12.90
2014,05,01,06,06,12.90
2014,05,01,06,07,12.90
2014,05,01,06,08,12.90
2014,05,01,06,09,12.90
2014,05,01,06,10,12.90
2014,05,01,06,11,13.00
2014,05,01,06,12,13.00
2014,05,01,06,13,13.00
2014,05,01,06,14,13.00
2014,05,01,06,15,13.00
2014,05,01,06,16,13.10
2014,05,01,06,17,13.10
2014,05,01,06,18,13.10
2014,05,01,06,19,13.20
2014,05,01,06,20,13.20
2014,05,01,06,21,13.30
2014,05,01,06,22,13.30
2014,05,01,06,23,13.30
2014,05,01,06,24,13.30
2014,05,01,06,25,13.30
2014,05,01,06,26,13.40
2014,05,01,06,27,13.40
2014,05,01,06,28,13.50
2014,05,01,06,29,13.60
2014,05,01,06,30,13.70
2014,05,01,06,31,13.70
2014,05,01,06,32,13.70
2014,05,01,06,33,13.80
2014,05,01,06,34,13.80
2014,05,01,06,35,13.90
2014,05,01,06,36,13.90
2014,05,01,06,37,13.90
2014,05,01,06,38,14.00
2014,05,01,06,39,14.00
2014,05,01,06,40,14.10
2014,05,01,06,41,14.10
2014,05,01,06,42,14.20
2014,05,01,06,43,14.20
2014,05,01,06,44,14.20
2014,05,01,06,45,14.30
2014,05,01,06,46,14.40
2014,05,01,06,47,14.50
2014,05,01,06,48,14.50
2014,05,01,06,49,14.60
2014,05,01,06,50,14.60
2014,05,01,06,51,14.70
2014,05,01,06,52,14.70
2014,05,01,06,53,14.80
2014,05,01,06,54,14.80
2014,05,01,06,55,14.80
2014,05,01,06,56,14.80
2014,05,01,06,57,14.90
2014,05,01,06,58,14.90
2014,05,01,06,59,14.90
2014,05,01,07,00,15.00
2014,05,01,07,01,15.00
2014,05,01,07,02,15.10
2014,05,01,07,03,15.10
2014,05,01,07,04,15.20
2014,05,01,07,05,15.20
2014,05,01,07,06,15.20
2014,05,01,07,07,15.30
2014,05,01,07,08,15.30
2014,05,01,07,09,15.30
2014,05,01,07,10,15.30
2014,05,01,07,11,15.40
2014,05,01,07,12,15.40
2014,05,01,07,13,15.50
2014,05,01,07,14,15.50
2014,05,01,07,15,15.50
2014,05,01,07,16,15.60
2014,05,01,07,17,15.60
2014,05,01,07,18,15.60
2014,05,01,07,19,15.60
2014,05,01,07,20,15.70
2014,05,01,07,21,15.70
2014,05,01,07,22,15.70
2014,05,01,07,23,15.70
2014,05,01,07,24,15.80
2014,05,01,07,25,15.80
2014,05,01,07,26,15.80
2014,05,01,07,27,15.80
2014,05,01,07,28,15.80
2014,05,01,07,29,15.80
2014,05,01,07,30,15.80
2014,05,01,07,31,15.80
2014,05,01,07,32,15.90
2014,05,01,07,33,15.90
2014,05,01,07,34,15.90
2014,05,01,07,35,15.90
2014,05,01,07,36,15.90
2014,05,01,07,37,16.00
2014,05,01,07,38,16.10
2014,05,01,07,39,16.10
2014,05,01,07,40,16.10
2014,05,01,07,41,16.10
2014,05,01,07,42,16.10
2014,05,01,07,43,16.10
2014,05,01,07,44,16.10
2014,05,01,07,45,16.10
2014,05,01,07,46,16.10
2014,05,01,07,47,16.20
2014,05,01,07,48,16.20
2014,05,01,07,49,16.20
2014,05,01,07,50,16.30
2014,05,01,07,51,16.30
2014,05,01,07,52,16.30
2014,05,01,07,53,16.30
2014,05,01,07,54,16.40
2014,05,01,07,55,16.40
2014,05,01,07,56,16.40
2014,05,01,07,57,16.40
2014,05,01,07,58,16.40
2014,05,01,07,59,16.40
2014,05,01,08,00,16.40
2014,05,01,08,01,16.50
2014,05,01,08,02,16.60
2014,05,01,08,03,16.60
2014,05,01,08,04,16.60
2014,05,01,08,05,16.70
2014,05,01,08,06,16.70
2014,05,01,08,07,16.70
2014,05,01,08,08,16.80
2014,05,01,08,09,16.80
2014,05,01,08,10,16.90
2014,05,01,08,11,16.90
2014,05,01,08,12,17.00
2014,05,01,08,13,17.00
2014,05,01,08,14,17.10
2014,05,01,08,15,17.10
2014,05,01,08,16,17.20
2014,05,01,08,17,17.30
2014,05,01,08,18,17.30
2014,05,01,08,19,17.40
2014,05,01,08,20,17.50
2014,05,01,08,21,17.50
2014,05,01,08,22,17.60
2014,05,01,08,23,17.70
2014,05,01,08,24,17.70
2014,05,01,08,25,17.80
2014,05,01,08,26,17.80
2014,05,01,08,27,17.80
2014,05,01,08,28,17.80
2014,05,01,08,29,17.90
2014,05,01,08,30,17.90
2014,05,01,08,31,17.90
2014,05,01,08,32,17.90
2014,05,01,08,33,18.00
2014,05,01,08,34,18.10
2014,05,01,08,35,18.10
2014,05,01,08,36,18.20
2014,05,01,08,37,18.20
2014,05,01,08,38,18.20
2014,05,01,08,39,18.30
2014,05,01,08,40,18.30
2014,05,01,08,41,18.30
2014,05,01,08,42,18.40
2014,05,01,08,43,18.40
2014,05,01,08,44,18.40
2014,05,01,08,45,18.40
2014,05,01,08,46,18.40
2014,05,01,08,47,18.50
2014,05,01,08,48,18.50
2014,05,01,08,49,18.60
2014,05,01,08,50,18.70
2014,05,01,08,51,18.70
2014,05,01,08,52,18.80
2014,05,01,08,53,18.80
2014,05,01,08,54,18.70
2014,05,01,08,55,18.70
2014,05,01,08,56,18.70
2014,05,01,08,57,18.60
2014,05,01,08,58,18.60
2014,05,01,08,59,18.60
2014,05,01,09,00,18.70
2014,05,01,09,01,18.70
2014,05,01,09,02,18.70
2014,05,01,09,03,18.70
2014,05,01,09,04,18.70
2014,05,01,09,05,18.80
2014,05,01,09,06,18.80
2014,05,01,09,07,18.80
2014,05,01,09,08,18.90
2014,05,01,09,09,18.90
2014,05,01,09,10,18.90
2014,05,01,09,11,18.80
2014,05,01,09,12,18.80
2014,05,01,09,13,18.70
2014,05,01,09,14,18.70
2014,05,01,09,15,18.70
2014,05,01,09,16,18.70
2014,05,01,09,17,18.60
2014,05,01,09,18,18.60
2014,05,01,09,19,18.60
2014,05,01,09,20,18.60
2014,05,01,09,21,18.70
2014,05,01,09,22,18.70
2014,05,01,09,23,18.80
2014,05,01,09,24,18.90
2014,05,01,09,25,18.90
2014,05,01,09,26,18.90
2014,05,01,09,27,19.00
2014,05,01,09,28,19.10
2014,05,01,09,29,19.10
2014,05,01,09,30,19.20
2014,05,01,09,31,19.30
2014,05,01,09,32,19.40
2014,05,01,09,33,19.40
2014,05,01,09,34,19.50
2014,05,01,09,35,19.60
2014,05,01,09,36,19.60
2014,05,01,09,37,19.70
2014,05,01,09,38,19.70
2014,05,01,09,39,19.70
2014,05,01,09,40,19.80
2014,05,01,09,41,19.80
2014,05,01,09,42,19.90
2014,05,01,09,43,19.90
2014,05,01,09,44,19.90
2014,05,01,09,45,20.10
2014,05,01,09,46,20.20
2014,05,01,09,47,20.20
2014,05,01,09,48,20.20
2014,05,01,09,49,20.20
2014,05,01,09,50,20.20
2014,05,01,09,51,20.20
2014,05,01,09,52,20.20
2014,05,01,09,53,20.20
2014,05,01,09,54,20.20
2014,05,01,09,55,20.20
2014,05,01,09,56,20.20
2014,05,01,09,57,20.20
2014,05,01,09,58,20.20
2014,05,01,09,59,20.30
2014,05,01,10,00,20.30
2014,05,01,10,01,20.40
2014,05,01,10,02,20.40
2014,05,01,10,03,20.50
2014,05,01,10,04,20.50
2014,05,01,10,05,20.50
2014,05,01,10,06,20.50
2014,05,01,10,07,20.60
2014,05,01,10,08,20.60
2014,05,01,10,09,20.60
2014,05,01,10,10,20.50
2014,05,01,10,11,20.40
2014,05,01,10,12,20.20
2014,05,01,10,13,20.00
2014,05,01,10,14,19.90
2014,05,01,10,15,19.90
2014,05,01,10,16,19.90
2014,05,01,10,17,19.90
2014,05,01,10,18,19.90
2014,05,01,10,19,20.00
2014,05,01,10,20,20.10
2014,05,01,10,21,20.20
2014,05,01,10,22,20.20
2014,05,01,10,23,20.30
2014,05,01,10,24,20.30
2014,05,01,10,25,20.30
2014,05,01,10,26,20.30
2014,05,01,10,27,20.40
2014,05,01,10,28,20.50
2014,05,01,10,29,20.60
2014,05,01,10,30,20.60
2014,05,01,10,31,20.60
2014,05,01,10,32,20.60
2014,05,01,10,33,20.60
2014,05,01,10,34,20.60
2014,05,01,10,35,20.50
2014,05,01,10,36,20.50
2014,05,01,10,37,20.60
2014,05,01,10,38,20.70
2014,05,01,10,39,20.80
2014,05,01,10,40,21.00
2014,05,01,10,41,21.10
2014,05,01,10,42,21.10
2014,05,01,10,43,21.00
2014,05,01,10,44,21.00
2014,05,01,10,45,21.00
2014,05,01,10,46,21.00
2014,05,01,10,47,20.90
2014,05,01,10,48,20.90
2014,05,01,10,49,20.90
2014,05,01,10,50,20.90
2014,05,01,10,51,20.90
2014,05,01,10,52,21.00
2014,05,01,10,53,21.00
2014,05,01,10,54,21.00
2014,05,01,10,55,21.00
2014,05,01,10,56,20.90
2014,05,01,10,57,21.00
2014,05,01,10,58,20.90
2014,05,01,10,59,20.90
2014,05,01,11,00,20.90
2014,05,01,11,01,20.90
2014,05,01,11,02,20.90
2014,05,01,11,03,21.00
2014,05,01,11,04,21.10
2014,05,01,11,05,21.20
2014,05,01,11,06,21.20
2014,05,01,11,07,21.10
2014,05,01,11,08,21.00
2014,05,01,11,09,20.90
2014,05,01,11,10,20.90
2014,05,01,11,11,20.90
2014,05,01,11,12,20.90
2014,05,01,11,13,20.90
2014,05,01,11,14,20.80
2014,05,01,11,15,20.80
2014,05,01,11,16,20.80
2014,05,01,11,17,20.70
2014,05,01,11,18,20.70
2014,05,01,11,19,20.70
2014,05,01,11,20,20.70
2014,05,01,11,21,20.70
2014,05,01,11,22,20.70
2014,05,01,11,23,20.80
2014,05,01,11,24,20.80
2014,05,01,11,25,20.90
2014,05,01,11,26,20.90
2014,05,01,11,27,20.90
2014,05,01,11,28,20.90
2014,05,01,11,29,20.80
2014,05,01,11,30,20.80
2014,05,01,11,31,20.90
2014,05,01,11,32,21.00
2014,05,01,11,33,21.10
2014,05,01,11,34,21.10
2014,05,01,11,35,21.20
2014,05,01,11,36,21.30
2014,05,01,11,37,21.30
2014,05,01,11,38,21.30
2014,05,01,11,39,21.30
2014,05,01,11,40,21.30
2014,05,01,11,41,21.40
2014,05,01,11,42,21.50
2014,05,01,11,43,21.60
2014,05,01,11,44,21.60
2014,05,01,11,45,21.60
2014,05,01,11,46,21.60
2014,05,01,11,47,21.60
2014,05,01,11,48,21.50
2014,05,01,11,49,21.40
2014,05,01,11,50,21.40
2014,05,01,11,51,21.30
2014,05,01,11,52,21.20
2014,05,01,11,53,21.20
2014,05,01,11,54,21.20
2014,05,01,11,55,21.20
2014,05,01,11,56,21.20
2014,05,01,11,57,21.10
2014,05,01,11,58,21.10
2014,05,01,11,59,21.20
2014,05,01,12,00,21.20
2014,05,01,12,01,21.30
2014,05,01,12,02,21.30
2014,05,01,12,03,21.30
2014,05,01,12,04,21.30
2014,05,01,12,05,21.30
2014,05,01,12,06,21.30
2014,05,01,12,07,21.30
2014,05,01,12,08,21.30
2014,05,01,12,09,21.30
2014,05,01,12,10,21.40
2014,05,01,12,11,21.30
2014,05,01,12,12,21.30
2014,05,01,12,13,21.40
2014,05,01,12,14,21.40
2014,05,01,12,15,21.50
2014,05,01,12,16,21.60
2014,05,01,12,17,21.70
2014,05,01,12,18,21.70
2014,05,01,12,19,21.80
2014,05,01,12,20,21.80
2014,05,01,12,21,21.90
2014,05,01,12,22,21.90
2014,05,01,12,23,21.90
2014,05,01,12,24,21.90
2014,05,01,12,25,21.90
2014,05,01,12,26,21.90
2014,05,01,12,27,21.90
2014,05,01,12,28,21.90
2014,05,01,12,29,22.00
2014,05,01,12,30,22.10
2014,05,01,12,31,22.20
2014,05,01,12,32,22.20
2014,05,01,12,33,22.30
2014,05,01,12,34,22.30
2014,05,01,12,35,22.30
2014,05,01,12,36,22.30
2014,05,01,12,37,22.40
2014,05,01,12,38,22.50
2014,05,01,12,39,22.60
2014,05,01,12,40,22.80
2014,05,01,12,41,22.90
2014,05,01,12,42,22.90
2014,05,01,12,43,23.00
2014,05,01,12,44,23.10
2014,05,01,12,45,23.10
2014,05,01,12,46,23.10
2014,05,01,12,47,23.00
2014,05,01,12,48,22.90
2014,05,01,12,49,22.90
2014,05,01,12,50,23.00
2014,05,01,12,51,23.00
2014,05,01,12,52,22.90
2014,05,01,12,53,23.10
2014,05,01,12,54,23.10
2014,05,01,12,55,23.00
2014,05,01,12,56,22.90
2014,05,01,12,57,22.80
2014,05,01,12,58,22.70
2014,05,01,12,59,22.60
2014,05,01,13,00,22.50
2014,05,01,13,01,22.40
2014,05,01,13,02,22.30
2014,05,01,13,03,22.30
2014,05,01,13,04,22.40
2014,05,01,13,05,22.40
2014,05,01,13,06,22.40
2014,05,01,13,07,22.40
2014,05,01,13,08,22.40
2014,05,01,13,09,22.40
2014,05,01,13,10,22.50
2014,05,01,13,11,22.60
2014,05,01,13,12,22.60
2014,05,01,13,13,22.60
2014,05,01,13,14,22.60
2014,05,01,13,15,22.50
2014,05,01,13,16,22.50
2014,05,01,13,17,22.40
2014,05,01,13,18,22.40
2014,05,01,13,19,22.40
2014,05,01,13,20,22.30
2014,05,01,13,21,22.30
2014,05,01,13,22,22.30
2014,05,01,13,23,22.40
2014,05,01,13,24,22.40
2014,05,01,13,25,22.50
2014,05,01,13,26,22.50
2014,05,01,13,27,22.40
2014,05,01,13,28,22.30
2014,05,01,13,29,22.30
2014,05,01,13,30,22.30
2014,05,01,13,31,22.30
2014,05,01,13,32,22.30
2014,05,01,13,33,22.40
2014,05,01,13,34,22.40
2014,05,01,13,35,22.40
2014,05,01,13,36,22.40
2014,05,01,13,37,22.40
2014,05,01,13,38,22.50
2014,05,01,13,39,22.50
2014,05,01,13,40,22.50
2014,05,01,13,41,22.40
2014,05,01,13,42,22.40
2014,05,01,13,43,22.40
2014,05,01,13,44,22.40
2014,05,01,13,45,22.50
2014,05,01,13,46,22.50
2014,05,01,13,47,22.60
2014,05,01,13,48,22.70
2014,05,01,13,49,22.70
2014,05,01,13,50,22.80
2014,05,01,13,51,22.80
2014,05,01,13,52,22.80
2014,05,01,13,53,22.90
2014,05,01,13,54,22.90
2014,05,01,13,55,23.00
2014,05,01,13,56,23.10
2014,05,01,13,57,23.10
2014,05,01,13,58,23.10
2014,05,01,13,59,23.10
2014,05,01,14,00,23.20
2014,05,01,14,01,23.10
2014,05,01,14,02,23.00
2014,05,01,14,03,22.90
2014,05,01,14,04,22.70
2014,05,01,14,05,22.60
2014,05,01,14,06,22.60
2014,05,01,14,07,22.50
2014,05,01,14,08,22.40
2014,05,01,14,09,22.40
2014,05,01,14,10,22.40
2014,05,01,14,11,22.40
2014,05,01,14,12,22.30
2014,05,01,14,13,22.30
2014,05,01,14,14,22.20
2014,05,01,14,15,22.20
2014,05,01,14,16,22.00
2014,05,01,14,17,21.90
2014,05,01,14,18,21.80
2014,05,01,14,19,21.60
2014,05,01,14,20,21.60
2014,05,01,14,21,21.50
2014,05,01,14,22,21.30
2014,05,01,14,23,21.30
2014,05,01,14,24,21.20
2014,05,01,14,25,21.20
2014,05,01,14,26,21.20
2014,05,01,14,27,21.10
2014,05,01,14,28,21.10
2014,05,01,14,29,21.00
2014,05,01,14,30,20.90
2014,05,01,14,31,20.80
2014,05,01,14,32,20.70
2014,05,01,14,33,20.70
2014,05,01,14,34,20.70
2014,05,01,14,35,20.70
2014,05,01,14,36,20.80
2014,05,01,14,37,21.00
2014,05,01,14,38,21.20
2014,05,01,14,39,21.30
2014,05,01,14,40,21.30
2014,05,01,14,41,21.40
2014,05,01,14,42,21.40
2014,05,01,14,43,21.40
2014,05,01,14,44,21.40
2014,05,01,14,45,21.40
2014,05,01,14,46,21.50
2014,05,01,14,47,21.50
2014,05,01,14,48,21.60
2014,05,01,14,49,21.60
2014,05,01,14,50,21.60
2014,05,01,14,51,21.60
2014,05,01,14,52,21.60
2014,05,01,14,53,21.60
2014,05,01,14,54,21.60
2014,05,01,14,55,21.60
2014,05,01,14,56,21.60
2014,05,01,14,57,21.60
2014,05,01,14,58,21.60
2014,05,01,14,59,21.60
2014,05,01,15,00,21.60
2014,05,01,15,01,21.60
2014,05,01,15,02,21.60
2014,05,01,15,03,21.60
2014,05,01,15,04,21.60
2014,05,01,15,05,21.60
2014,05,01,15,06,21.60
2014,05,01,15,07,21.60
2014,05,01,15,08,21.60
2014,05,01,15,09,21.50
2014,05,01,15,10,21.50
2014,05,01,15,11,21.60
2014,05,01,15,12,21.60
2014,05,01,15,13,21.60
2014,05,01,15,14,21.60
2014,05,01,15,15,21.60
2014,05,01,15,16,21.60
2014,05,01,15,17,21.60
2014,05,01,15,18,21.60
2014,05,01,15,19,21.70
2014,05,01,15,20,21.70
2014,05,01,15,21,21.70
2014,05,01,15,22,21.60
2014,05,01,15,23,21.60
2014,05,01,15,24,21.60
2014,05,01,15,25,21.60
2014,05,01,15,26,21.60
2014,05,01,15,27,21.70
2014,05,01,15,28,21.70
2014,05,01,15,29,21.70
2014,05,01,15,30,21.70
2014,05,01,15,31,21.70
2014,05,01,15,32,21.30
2014,05,01,15,33,21.20
2014,05,01,15,34,21.20
2014,05,01,15,35,21.10
2014,05,01,15,36,21.00
2014,05,01,15,37,20.90
2014,05,01,15,38,20.80
2014,05,01,15,39,20.70
2014,05,01,15,40,20.60
2014,05,01,15,41,20.50
2014,05,01,15,42,20.30
2014,05,01,15,43,20.20
2014,05,01,15,44,20.10
2014,05,01,15,45,20.10
2014,05,01,15,46,20.10
2014,05,01,15,47,20.10
2014,05,01,15,48,20.10
2014,05,01,15,49,20.10
2014,05,01,15,50,20.10
2014,05,01,15,51,20.10
2014,05,01,15,52,20.10
2014,05,01,15,53,20.10
2014,05,01,15,54,20.10
2014,05,01,15,55,20.00
2014,05,01,15,56,19.90
2014,05,01,15,57,19.90
2014,05,01,15,58,19.90
2014,05,01,15,59,19.90
2014,05,01,16,00,19.90
2014,05,01,16,01,19.90
2014,05,01,16,02,19.90
2014,05,01,16,03,19.90
2014,05,01,16,04,19.90
2014,05,01,16,05,20.10
2014,05,01,16,06,20.10
2014,05,01,16,07,20.20
2014,05,01,16,08,20.20
2014,05,01,16,09,20.20
2014,05,01,16,10,20.20
2014,05,01,16,11,20.20
2014,05,01,16,12,20.20
2014,05,01,16,13,20.20
2014,05,01,16,14,20.30
2014,05,01,16,15,20.40
2014,05,01,16,16,20.40
2014,05,01,16,17,20.50
2014,05,01,16,18,20.50
2014,05,01,16,19,20.60
2014,05,01,16,20,20.70
2014,05,01,16,21,20.80
2014,05,01,16,22,20.90
2014,05,01,16,23,21.00
2014,05,01,16,24,21.10
2014,05,01,16,25,21.20
2014,05,01,16,26,21.30
2014,05,01,16,27,21.30
2014,05,01,16,28,21.30
2014,05,01,16,29,21.20
2014,05,01,16,30,21.10
2014,05,01,16,31,21.00
2014,05,01,16,32,20.90
2014,05,01,16,33,20.90
2014,05,01,16,34,20.90
2014,05,01,16,35,20.80
2014,05,01,16,36,20.80
2014,05,01,16,37,20.80
2014,05,01,16,38,20.80
2014,05,01,16,39,20.80
2014,05,01,16,40,20.80
2014,05,01,16,41,20.80
2014,05,01,16,42,20.90
2014,05,01,16,43,20.90
2014,05,01,16,44,21.00
2014,05,01,16,45,21.00
2014,05,01,16,46,21.10
2014,05,01,16,47,21.20
2014,05,01,16,48,21.30
2014,05,01,16,49,21.40
2014,05,01,16,50,21.50
2014,05,01,16,51,21.60
2014,05,01,16,52,21.70
2014,05,01,16,53,21.80
2014,05,01,16,54,21.80
2014,05,01,16,55,21.60
2014,05,01,16,56,21.50
2014,05,01,16,57,21.30
2014,05,01,16,58,21.20
2014,05,01,16,59,21.20
2014,05,01,17,00,21.20
2014,05,01,17,01,21.20
2014,05,01,17,02,21.30
2014,05,01,17,03,21.40
2014,05,01,17,04,21.40
2014,05,01,17,05,21.40
2014,05,01,17,06,21.50
2014,05,01,17,07,21.60
2014,05,01,17,08,21.60
2014,05,01,17,09,21.60
2014,05,01,17,10,21.60
2014,05,01,17,11,21.60
2014,05,01,17,12,21.60
2014,05,01,17,13,21.60
2014,05,01,17,14,21.60
2014,05,01,17,15,21.60
2014,05,01,17,16,21.60
2014,05,01,17,17,21.60
2014,05,01,17,18,21.60
2014,05,01,17,19,21.60